Location: Le Sartre
(44.8050°N, 2.2123°E)
Time: 15:58:38
(UTC+00:00)

NOSS 0 Rocket - Pass Details

Date: 15 May 2026
Orbit: 936 x 952 km, 70.0° (Epoch: 10 June)

Event Time Altitude Azimuth Distance (km) Brightness Sun altitude
Rises 23:21:18 0° 331° (NNW) 3,613 8.1 -25.9°
Reaches altitude 10° 23:23:50 10° 330° (NNW) 2,662 7.1 -25.9°
Maximum altitude 23:30:00 78° 246° (WSW) 961 3.8 -26.0°
Enters shadow 23:30:48 67° 185° (S) 1,013 3.8 -26.0°
